DELTA 1 R/B(1)

Satellite information

Favourite Embed

Satellite Type and Status

ROCKET BODYIN ORBIT

Key statistics

Satellite DELTA 1 R/B(1) at a glance.

Uptime

17803

Days in orbit

Revolutions

≈ 14.0

Per day

Orbit

LEO

Low Earth Orbit

Inclination

28.0

Latest

Satellite identification and parameters

Extended collection of information and parameters for DELTA 1 R/B(1).

Object identification

Identified? True

Debris? False

Object name: DELTA 1 R/B(1)

International designator: 1977-005B

Object number (NORAD): 9786

Object ID (CCSDS): 9786

Country: UNITED STATES OF AMERICA (US)

Current information (Y/N): Y

RCS size: LARGE

Orbital parameters

Period: 103.115 minutes

Inclination: 28.0097 deg

SMA: 7284.104 km

Apoapsis: 1204.686 km

Periapsis: 607.252 km

RAAN: 291.2861 deg

Eccentricy: 0.04100946

Argument of periapsis: 154.3656 deg

Mean anomaly: 207.7841 deg

Mean motion: 13.96492436 rev/day

Mean motion (dot): 0.00000378 rev/day2

B* drag term: 0.000087983906 1/REarth

Two-line elements (TLE)

Creation date: Oct. 26, 2025, 2:54 a.m.

Reference frame: TEME

Reference center: EARTH

Epoch: Oct. 25, 2025, 11:19 p.m. UTC

TLE line 0: 0 DELTA 1 R/B(1)

TLE line 1: 1 09786U 77005B 25298.97198661 .00000378 00000-0 87984-4 0 9990

TLE line 2: 2 09786 28.0097 291.2861 0410095 154.3656 207.7841 13.96492436459639

Live tracking on map

Real-time ground track for satellite DELTA 1 R/B(1).

In-orbit conjunctions

A list of the most updated potential collisions computed for object DELTA 1 R/B(1).

Target Orbit TCA Probability of collision Miss distance Type
CZ-6A DEB SSO 2025-10-15 20:21:51 0.001179138 112.0 (m) DEBRIS
PEGASUS DEB LEO 2024-08-10 08:48:23 0.0003122111 800.0 (m) DEBRIS

Associated space launch

Military communications satellite providing links between officials of the various NATO nations.

DELTA 1 R/B(1) was lifted into orbit during the mission ‘Delta 2914 | NATO 3B’, on board a Delta 2914 space rocket.

The launch took place on Jan. 28, 1977, 12:50 a.m. from Space Launch Complex 17A.

For more information about the launch, click the button.

Launch to space Delta 2914 | NATO 3B
Delta 2914 | NATO 3B

Agency: N/A

Status: Launch Successful

Launch date: Jan. 28, 1977, 12:50 a.m. UTC

Rocket: Delta 2914

Launch pad: Space Launch Complex 17A

Location: Cape Canaveral SFS, FL, USA

...

Latest news about this satellite

There are no fresh news available about this satellite. Check back as we update our databases every day.


Newsletter sign-up

Weekly statistics, charts and insights to help you stay on top of the space industry.